[[{"header":{"parameterUnit":"m.s-1","parameterCategory":2,"la1":30.2991,"la2":30.254,"lo1":-89.0895,"lo2":-89.0444,"dy":0.0017,"dx":0.0017,"nx":28,"ny":28,"refTime":"2026-02-06T03:00:00:Z","depth":"0","parameterNumber":2,"parameterNumberName":"U-component_of_CURRENTS"},"data":[0,0,0,0,0,0,0,0,0,0,0,0,0,0,0,0,0,0,0,0,0,0,0,0,0,0,0,0,0,0,0,0,0,0,0,0,0,0,0,0,0,0,0,0,0,0,0,0,0,0,0,0,0,0,0,0,0,0,-0.3582,-0.3584,0,-0.3791,-0.3793,-0.3795,-0.3682,-0.3676,-0.3671,-0.3666,-0.3637,-0.3642,-0.3646,0,0,0,0,0,0,0,0,0,0,0,0,0,-0.3176,-0.3183,-0.3581,-0.3584,-0.3587,-0.379,-0.3793,-0.3795,-0.3683,-0.3676,-0.367,-0.3663,-0.3636,-0.3641,-0.3646,0,0,0,0,0,0,0,0,0,0,0,0,0,-0.3362,-0.3185,-0.3581,-0.3557,-0.3558,-0.379,-0.3793,-0.3796,-0.3684,-0.3676,-0.3668,-0.366,-0.3634,-0.3641,-0.3647,-0.385,0,0,-0.3667,-0.367,0,0,0,0,0,0,0,0,-0.3352,-0.3377,-0.3558,-0.356,-0.356,-0.3704,-0.364,-0.3803,-0.3686,-0.3633,-0.3666,-0.3656,-0.3646,-0.3651,-0.3708,-0.3848,-0.3847,-0.3667,-0.3671,-0.3674,-0.3676,0,0,0,0,0,0,0,-0.3339,-0.3368,-0.3661,-0.3562,-0.3563,-0.3568,-0.3584,-0.3671,-0.3676,-0.3637,-0.363,-0.3661,-0.3643,-0.3702,-0.3705,-0.3847,-0.3667,-0.3673,-0.3677,-0.3679,-0.3946,-0.3949,0,0,0,0,0,0,-0.3325,-0.3357,-0.3655,-0.3668,-0.3437,-0.3582,-0.36,-0.3664,-0.368,-0.3678,-0.3668,-0.3655,-0.3695,-0.3698,-0.3704,-0.3671,-0.3674,-0.368,-0.3684,-0.3943,-0.3947,-0.395,0,0,0,0,0,0,-0.3316,-0.3352,-0.3646,-0.3515,-0.3553,-0.3597,-0.367,-0.3672,-0.3707,-0.3706,-0.3696,-0.3694,-0.3689,-0.3694,-0.3776,-0.3678,-0.3683,-0.3689,-0.3939,-0.3944,-0.3948,-0.3781,0,0,0,0,0,0,-0.3305,-0.3348,-0.3403,-0.3517,-0.3561,-0.3779,-0.3679,-0.3682,-0.3741,-0.3725,-0.3729,-0.3718,-0.3683,-0.3767,-0.3782,-0.3687,-0.3694,-0.3935,-0.3941,-0.3947,-0.3782,-0.3779,-0.3777,0,0,0,0,0,-0.329,-0.3413,-0.3405,-0.3441,-0.3632,-0.3783,-0.3808,-0.3806,-0.375,-0.3799,-0.3793,-0.3717,-0.3811,-0.3779,-0.3795,-0.3697,-0.3932,-0.3939,-0.3946,-0.3783,-0.378,-0.3777,0,0,0,0,0,0,-0.3274,-0.3418,-0.3409,-0.3569,-0.3657,-0.3763,-0.384,-0.3833,-0.3884,-0.3855,-0.3812,-0.3809,-0.3814,-0.3861,-0.3824,-0.3809,-0.3841,-0.3852,-0.3711,-0.3709,-0.3706,-0.3614,-0.3699,0,0,0,0,0,-0.3302,-0.3421,-0.3531,-0.3657,-0.3711,-0.3777,-0.3841,-0.3842,-0.3901,-0.3912,-0.3909,-0.3907,-0.3881,-0.3875,-0.3905,-0.3961,-0.3935,-0.3907,-0.3903,-0.39,-0.3849,-0.3771,-0.375,-0.3974,-0.3974,-0.3974,0,0,-0.3336,-0.3428,-0.3496,-0.3661,-0.3734,-0.3798,-0.3794,-0.3911,-0.389,-0.3911,-0.3914,-0.3922,-0.3908,-0.3901,-0.3905,-0.3907,-0.384,-0.3909,-0.3903,-0.3854,-0.3775,-0.3751,-0.373,-0.3979,-0.3978,-0.3977,0,0,-0.3465,-0.3544,-0.3675,-0.3731,-0.3847,-0.3867,-0.3895,-0.4001,-0.3969,-0.4034,-0.3965,-0.3923,-0.4004,-0.3886,-0.3846,-0.3886,-0.3836,-0.3921,-0.3802,-0.3727,-0.3703,-0.3682,-0.3649,-0.3626,-0.3904,-0.3903,-0.3903,0,-0.3492,-0.3627,-0.3735,-0.3829,-0.3829,-0.3879,-0.3924,-0.3943,-0.4036,-0.3984,-0.4012,-0.3966,-0.3943,-0.3789,-0.3764,-0.3844,-0.3851,-0.3783,-0.3705,-0.3684,-0.3665,-0.3636,-0.3612,-0.3896,-0.3897,-0.3898,-0.3898,0,-0.3685,-0.3742,-0.3824,-0.3903,-0.3939,-0.4003,-0.3997,-0.4007,-0.3972,-0.3945,-0.386,-0.3855,-0.379,-0.3765,-0.3758,-0.3597,-0.3664,-0.3704,-0.367,-0.3629,-0.3607,-0.3584,-0.3886,-0.3888,-0.389,-0.3892,0,0,-0.3815,-0.3931,-0.3934,-0.3898,-0.3942,-0.3976,-0.3931,-0.3876,-0.3798,-0.3818,-0.3697,-0.3598,-0.3586,-0.3545,-0.3521,-0.3429,-0.3285,-0.3507,-0.3507,-0.3397,-0.3165,-0.31,-0.3072,-0.3323,-0.3318,-0.3314,-0.3209,0,-0.3887,-0.3993,-0.4026,-0.4003,-0.4007,-0.3953,-0.3897,-0.3833,-0.3775,-0.3703,-0.3576,-0.3512,-0.3502,-0.3471,-0.336,-0.333,-0.322,-0.3312,-0.3289,-0.3288,-0.3167,-0.3039,-0.2965,-0.2855,-0.3188,-0.3184,-0.3182,0,-0.4001,-0.4026,-0.4039,-0.3938,-0.394,-0.3924,-0.375,-0.3722,-0.3598,-0.356,-0.3439,-0.3414,-0.3239,-0.3286,-0.3099,-0.3183,-0.3137,-0.3107,-0.3104,-0.3066,-0.3178,-0.2956,-0.2803,-0.2734,-0.3148,-0.3151,-0.3153,0,-0.3933,-0.3977,-0.3941,-0.392,-0.3882,-0.3818,-0.3773,-0.3664,-0.36,-0.3475,-0.3437,-0.3272,-0.3207,-0.3106,-0.303,-0.308,-0.287,-0.294,-0.2817,-0.2817,-0.2751,-0.275,-0.2443,-0.2761,-0.2761,-0.2761,-0.2762,0,-0.3908,-0.3864,-0.3909,-0.3872,-0.3798,-0.3776,-0.3672,-0.3615,-0.3529,-0.3439,-0.337,-0.3278,-0.3165,-0.3053,-0.2991,-0.282,-0.2829,-0.2727,-0.2741,-0.2705,-0.2702,-0.2642,-0.2679,-0.2758,-0.2758,-0.2759,-0.276,0,-0.3814,-0.385,-0.3813,-0.3787,-0.377,-0.3716,-0.3652,-0.3572,-0.3526,-0.3412,-0.3378,-0.3262,-0.3122,-0.3008,-0.2848,-0.2758,-0.2557,-0.2562,-0.254,-0.2549,-0.2362,-0.2397,-0.2152,-0.2087,-0.2391,-0.2388,-0.2385,0,-0.376,-0.3748,-0.3764,-0.3734,-0.372,-0.3657,-0.3599,-0.3561,-0.3489,-0.3391,-0.3322,-0.3188,-0.3038,-0.2788,-0.2623,-0.2448,-0.244,-0.2275,-0.2291,-0.2252,-0.2304,-0.2355,-0.2323,-0.2178,-0.2174,-0.2171,-0.2168,0,-0.3631,-0.3678,-0.3658,-0.3635,-0.3585,-0.3524,-0.3454,-0.3418,-0.3356,-0.3286,-0.3163,-0.3055,-0.2831,-0.2575,-0.2354,-0.2262,-0.2207,-0.2201,-0.2139,-0.2043,-0.2096,-0.2078,-0.2402,-0.2139,-0.2142,-0.2144,-0.2146,-0.2147,-0.3524,-0.3516,-0.3521,-0.3462,-0.3429,-0.3336,-0.3201,-0.3176,-0.3073,-0.2888,-0.294,-0.2692,-0.2495,-0.2165,-0.2068,-0.1864,-0.1976,-0.1801,-0.1834,-0.1878,-0.1809,-0.2067,-0.1837,-0.1838,-0.1839,-0.184,-0.1841,0,-0.332,-0.3334,-0.3313,-0.322,-0.3098,-0.3141,-0.3025,-0.2865,-0.2695,-0.2612,-0.2462,-0.2191,-0.1943,-0.1802,-0.1603,-0.15,-0.1506,-0.1482,-0.1528,-0.1503,-0.1684,-0.1666,-0.1411,-0.1411,-0.1411,-0.1412,-0.1412,-0.1412,-0.32,-0.3121,-0.3122,-0.287,-0.28,-0.2532,-0.2419,-0.2302,-0.2181,-0.1939,-0.1754,-0.1654,-0.1556,-0.1511,-0.1334,-0.1276,-0.1248,-0.1257,-0.1256,-0.1399,-0.1432,-0.1464,-0.1446,-0.1149,-0.1149,-0.1037,-0.1037,-0.1036]},{"header":{"parameterUnit":"m.s-1","parameterCategory":2,"la1":30.2991,"la2":30.254,"lo1":-89.0895,"lo2":-89.0444,"dy":0.0017,"dx":0.0017,"nx":28,"ny":28,"refTime":"2026-02-06T03:00:00:Z","depth":"0","parameterNumber":3,"parameterNumberName":"V-component_of_CURRENTS"},"data":[0,0,0,0,0,0,0,0,0,0,0,0,0,0,0,0,0,0,0,0,0,0,0,0,0,0,0,0,0,0,0,0,0,0,0,0,0,0,0,0,0,0,0,0,0,0,0,0,0,0,0,0,0,0,0,0,0,0,-0.0648,-0.0647,0,-0.0548,-0.0547,-0.0545,-0.0501,-0.0501,-0.0501,-0.0501,-0.0257,-0.0251,-0.0244,0,0,0,0,0,0,0,0,0,0,0,0,0,-0.0663,-0.0664,-0.0649,-0.0647,-0.0646,-0.0548,-0.0547,-0.0545,-0.0501,-0.0501,-0.0501,-0.0502,-0.026,-0.0252,-0.0244,0,0,0,0,0,0,0,0,0,0,0,0,0,-0.0618,-0.0664,-0.0649,-0.0613,-0.0609,-0.0548,-0.0547,-0.0545,-0.0501,-0.0501,-0.0501,-0.0502,-0.0262,-0.0253,-0.0243,-0.0174,0,0,-0.0212,-0.0208,0,0,0,0,0,0,0,0,-0.0621,-0.0618,-0.0619,-0.0615,-0.0611,-0.0538,-0.0462,-0.0414,-0.0501,-0.0541,-0.0501,-0.0502,-0.0338,-0.0322,-0.0303,-0.0163,-0.0152,-0.0211,-0.0205,-0.0201,-0.0198,0,0,0,0,0,0,0,-0.0624,-0.0621,-0.0608,-0.0618,-0.0613,-0.0554,-0.0549,-0.0453,-0.0435,-0.0537,-0.0534,-0.0524,-0.0335,-0.0313,-0.0297,-0.0149,-0.0211,-0.0202,-0.0196,-0.0192,0.0218,0.0222,0,0,0,0,0,0,-0.0646,-0.0625,-0.0611,-0.0605,-0.0618,-0.0554,-0.0549,-0.056,-0.044,-0.0423,-0.0524,-0.0523,-0.033,-0.0309,-0.0288,-0.0102,-0.0201,-0.0191,-0.0186,0.0213,0.0219,0.0224,0,0,0,0,0,0,-0.0647,-0.0647,-0.0615,-0.0612,-0.0604,-0.0555,-0.0567,-0.0558,-0.0539,-0.0431,-0.0412,-0.0515,-0.033,-0.0302,-0.0164,-0.0096,-0.0187,-0.0178,0.0207,0.0215,0.0222,0.0208,0,0,0,0,0,0,-0.0648,-0.0648,-0.0663,-0.0614,-0.0605,-0.0561,-0.0567,-0.0556,-0.0533,-0.053,-0.0416,-0.0395,-0.0328,-0.0179,-0.0154,-0.0084,-0.017,0.0201,0.0211,0.0219,0.0203,0.0214,0.0224,0,0,0,0,0,-0.0649,-0.0679,-0.0665,-0.0663,-0.0629,-0.056,-0.0548,-0.0514,-0.0532,-0.0503,-0.0415,-0.0398,-0.0102,-0.0168,-0.0139,-0.0064,0.0197,0.0208,0.0219,0.0198,0.0212,0.0224,0,0,0,0,0,0,-0.0705,-0.0675,-0.066,-0.0682,-0.0613,-0.0553,-0.0543,-0.0519,-0.0435,-0.0438,-0.0348,-0.0316,-0.0165,-0.0103,-0.0178,0.009,0.0056,0.0073,0.0031,0.0045,0.0055,-0.0008,-0.0161,0,0,0,0,0,-0.0722,-0.0734,-0.0669,-0.0684,-0.0658,-0.0601,-0.0576,-0.0543,-0.0467,-0.0436,-0.0341,-0.0226,-0.0095,-0.0024,0.0095,0.0228,0.0233,0.0305,0.0316,0.0324,0.0299,0.0338,0.0346,0.026,0.026,0.026,0,0,-0.075,-0.0735,-0.0743,-0.0694,-0.0654,-0.0565,-0.0587,-0.0548,-0.0457,-0.0416,-0.0272,-0.019,-0.005,0.011,0.0185,0.0167,0.0368,0.0338,0.0343,0.0313,0.035,0.0357,0.0363,0.0268,0.0266,0.0265,0,0,-0.0772,-0.0794,-0.0778,-0.0707,-0.0637,-0.0578,-0.0565,-0.0478,-0.043,-0.028,-0.0222,-0.0117,0.0098,0.0193,0.0274,0.0416,0.0418,0.048,0.0483,0.0523,0.0527,0.0531,0.0584,0.0593,0.0488,0.0488,0.0488,0,-0.08,-0.0769,-0.0757,-0.0683,-0.0633,-0.0575,-0.0502,-0.0415,-0.0283,-0.0257,-0.022,0.0027,0.0141,0.0296,0.0366,0.0433,0.0451,0.0408,0.0525,0.0529,0.0533,0.0587,0.0596,0.0489,0.0489,0.0489,0.0489,0,-0.0776,-0.072,-0.0706,-0.0587,-0.0527,-0.0468,-0.0344,-0.0277,-0.0216,-0.0141,-0.0004,0.0137,0.0254,0.0346,0.0414,0.0517,0.0522,0.0519,0.0461,0.0539,0.0594,0.0604,0.049,0.049,0.0489,0.0489,0,0,-0.089,-0.0724,-0.0708,-0.0655,-0.0483,-0.0458,-0.0299,-0.0189,-0.0171,0.0005,0.0043,0.0294,0.028,0.0371,0.0448,0.0512,0.0592,0.0529,0.053,0.0527,0.0683,0.0605,0.0608,0.0589,0.059,0.0591,0.072,0,-0.0859,-0.0753,-0.0653,-0.0527,-0.0464,-0.036,-0.0248,-0.0148,-0.0061,0.0004,0.0131,0.0218,0.0324,0.0337,0.0431,0.0529,0.0612,0.0558,0.0655,0.0659,0.0533,0.0614,0.0586,0.0689,0.0729,0.0731,0.0732,0,-0.0832,-0.0777,-0.067,-0.0556,-0.0531,-0.0444,-0.0381,-0.0268,-0.014,-0.0089,0.0009,0.0089,0.0234,0.0285,0.0498,0.045,0.0571,0.066,0.0666,0.0588,0.0597,0.062,0.0705,0.0861,0.0746,0.0745,0.0744,0,-0.0952,-0.0786,-0.0739,-0.068,-0.0525,-0.0506,-0.0444,-0.0329,-0.0297,-0.0186,-0.018,-0.0002,0.0055,0.0232,0.0452,0.0462,0.0656,0.0685,0.0745,0.0743,0.0733,0.0725,0.0922,0.0828,0.0828,0.0828,0.0827,0,-0.0952,-0.0912,-0.0812,-0.0782,-0.0793,-0.0651,-0.0657,-0.0576,-0.0485,-0.0452,-0.0279,-0.0219,0.0036,0.0192,0.0404,0.0593,0.0624,0.0744,0.0763,0.0737,0.0728,0.0871,0.0944,0.0833,0.0831,0.0831,0.083,0,-0.105,-0.0953,-0.0925,-0.0841,-0.083,-0.0862,-0.0801,-0.0799,-0.0702,-0.0655,-0.0629,-0.0401,-0.0181,0.0074,0.0359,0.0495,0.0779,0.0767,0.0722,0.0731,0.088,0.0953,0.1114,0.1232,0.0835,0.0834,0.0833,0,-0.1084,-0.1072,-0.1043,-0.1057,-0.1018,-0.1032,-0.1025,-0.0926,-0.0898,-0.0738,-0.0716,-0.0516,-0.0301,0.006,0.0298,0.0597,0.0796,0.0727,0.0737,0.0879,0.0978,0.103,0.1125,0.0766,0.0765,0.0763,0.0762,0,-0.1177,-0.1178,-0.1172,-0.1206,-0.1219,-0.1216,-0.119,-0.1197,-0.1045,-0.0966,-0.0768,-0.0591,-0.0283,0.0021,0.0317,0.0515,0.0799,0.0703,0.0881,0.095,0.0994,0.1117,0.0708,0.0751,0.0752,0.0753,0.0754,0.0754,-0.128,-0.1325,-0.1315,-0.1341,-0.135,-0.1318,-0.1275,-0.1217,-0.1126,-0.0913,-0.0797,-0.0516,-0.0184,0.0232,0.0417,0.0697,0.0753,0.0843,0.093,0.0979,0.1051,0.0595,0.0619,0.0619,0.0619,0.062,0.062,0,-0.1365,-0.1383,-0.1432,-0.1414,-0.1388,-0.1368,-0.1299,-0.1191,-0.1018,-0.09,-0.0673,-0.031,0.0042,0.036,0.0704,0.0911,0.1032,0.1073,0.1201,0.13,0.0931,0.0883,0.0925,0.0925,0.0925,0.0925,0.0924,0.0924,-0.1401,-0.1451,-0.1452,-0.1405,-0.1369,-0.1238,-0.1149,-0.1005,-0.0882,-0.0601,-0.0404,-0.0261,0.0155,0.0763,0.1156,0.1233,0.1521,0.1463,0.166,0.1446,0.1434,0.1422,0.1398,0.1547,0.1547,0.2019,0.2023,0.2027]}],[{"header":{"parameterUnit":"m.s-1","parameterCategory":2,"la1":30.2991,"la2":30.254,"lo1":-89.0895,"lo2":-89.0444,"dy":0.0017,"dx":0.0017,"nx":28,"ny":28,"refTime":"2026-02-06T03:00:00:Z","depth":"2","parameterNumber":2,"parameterNumberName":"U-component_of_CURRENTS"},"data":[0,0,0,0,0,0,0,0,0,0,0,0,0,0,0,0,0,0,0,0,0,0,0,0,0,0,0,0,0,0,0,0,0,0,0,0,0,0,0,0,0,0,0,0,0,0,0,0,0,0,0,0,0,0,0,0,0,0,-0.2972,-0.2973,0,-0.3126,-0.3128,-0.3129,-0.3032,-0.3027,-0.3022,-0.3018,-0.3034,-0.3038,-0.3043,0,0,0,0,0,0,0,0,0,0,0,0,0,-0.2747,-0.2751,-0.2971,-0.2973,-0.2975,-0.3125,-0.3128,-0.313,-0.3032,-0.3027,-0.3021,-0.3016,-0.3032,-0.3038,-0.3043,0,0,0,0,0,0,0,0,0,0,0,0,0,-0.2868,-0.2752,-0.2971,-0.2944,-0.2943,-0.3125,-0.3128,-0.313,-0.3034,-0.3027,-0.302,-0.3013,-0.303,-0.3037,-0.3044,-0.3227,0,0,-0.3066,-0.3069,0,0,0,0,0,0,0,0,-0.2861,-0.2876,-0.2946,-0.2946,-0.2945,-0.3052,-0.3054,-0.3156,-0.3035,-0.3,-0.3018,-0.301,-0.3032,-0.3038,-0.3086,-0.3228,-0.3229,-0.3067,-0.3071,-0.3074,-0.3076,0,0,0,0,0,0,0,-0.2852,-0.287,-0.3033,-0.2949,-0.2948,-0.2977,-0.2985,-0.3075,-0.3051,-0.3003,-0.2996,-0.3014,-0.3029,-0.3079,-0.3085,-0.3229,-0.3066,-0.3073,-0.3077,-0.308,-0.3379,-0.3383,0,0,0,0,0,0,-0.2833,-0.2862,-0.3028,-0.3038,-0.2884,-0.2986,-0.2995,-0.3025,-0.3053,-0.3051,-0.302,-0.3009,-0.3071,-0.3077,-0.3085,-0.3182,-0.3074,-0.3081,-0.3085,-0.3376,-0.338,-0.3384,0,0,0,0,0,0,-0.2828,-0.2847,-0.3022,-0.2951,-0.2975,-0.2996,-0.3032,-0.3032,-0.3077,-0.3067,-0.3061,-0.3062,-0.3065,-0.3075,-0.3145,-0.3185,-0.3084,-0.309,-0.3371,-0.3377,-0.3382,-0.3453,0,0,0,0,0,0,-0.2821,-0.2845,-0.2868,-0.2951,-0.2978,-0.3108,-0.3038,-0.304,-0.3099,-0.3086,-0.3104,-0.3097,-0.3061,-0.3135,-0.3152,-0.3193,-0.3096,-0.3367,-0.3374,-0.338,-0.3446,-0.346,-0.3473,0,0,0,0,0,-0.2813,-0.2881,-0.2869,-0.2889,-0.3008,-0.3111,-0.3129,-0.312,-0.3108,-0.3136,-0.3143,-0.3096,-0.3188,-0.3145,-0.3164,-0.3207,-0.3363,-0.3372,-0.338,-0.344,-0.3458,-0.3472,0,0,0,0,0,0,-0.2797,-0.2881,-0.2868,-0.2955,-0.3011,-0.3092,-0.3146,-0.3159,-0.3204,-0.3189,-0.3171,-0.3168,-0.3228,-0.3244,-0.3196,-0.3316,-0.3262,-0.3275,-0.3302,-0.3318,-0.3331,-0.324,-0.3102,0,0,0,0,0,-0.281,-0.2872,-0.2944,-0.3009,-0.3053,-0.3115,-0.3163,-0.316,-0.3212,-0.3225,-0.3245,-0.3268,-0.3295,-0.332,-0.3344,-0.346,-0.3387,-0.3495,-0.3508,-0.3519,-0.3461,-0.3389,-0.3387,-0.3411,-0.3411,-0.3411,0,0,-0.282,-0.2876,-0.2907,-0.3009,-0.3068,-0.3144,-0.3127,-0.3212,-0.3275,-0.3229,-0.3332,-0.3322,-0.3335,-0.3404,-0.3436,-0.3414,-0.3493,-0.3529,-0.3538,-0.3472,-0.3397,-0.3393,-0.339,-0.3417,-0.3416,-0.3415,0,0,-0.2863,-0.2932,-0.2984,-0.305,-0.3135,-0.3189,-0.3221,-0.3318,-0.3357,-0.3487,-0.3418,-0.3414,-0.3564,-0.3495,-0.3505,-0.3632,-0.3555,-0.3679,-0.3685,-0.3619,-0.3613,-0.3607,-0.3568,-0.3558,-0.3696,-0.3696,-0.3697,0,-0.287,-0.2943,-0.3016,-0.3086,-0.3143,-0.3215,-0.3279,-0.3376,-0.3471,-0.3506,-0.3525,-0.3587,-0.3591,-0.3576,-0.3592,-0.3649,-0.3611,-0.3618,-0.3626,-0.3618,-0.361,-0.3571,-0.3559,-0.3701,-0.37,-0.37,-0.3699,0,-0.2947,-0.3002,-0.3064,-0.3161,-0.323,-0.3322,-0.3431,-0.3528,-0.3619,-0.3663,-0.3712,-0.37,-0.3691,-0.3724,-0.3708,-0.3653,-0.3646,-0.3636,-0.3563,-0.361,-0.357,-0.3555,-0.3707,-0.3706,-0.3704,-0.3703,0,0,-0.2978,-0.3089,-0.3114,-0.315,-0.328,-0.336,-0.3495,-0.3613,-0.3692,-0.3775,-0.3818,-0.3835,-0.3762,-0.3757,-0.3701,-0.3645,-0.3586,-0.3623,-0.3617,-0.3543,-0.3456,-0.3268,-0.3234,-0.3578,-0.3574,-0.3572,-0.3468,0,-0.3015,-0.3125,-0.318,-0.3296,-0.3356,-0.3465,-0.3602,-0.3704,-0.3796,-0.3872,-0.3836,-0.3844,-0.3805,-0.3763,-0.3701,-0.3596,-0.3541,-0.3614,-0.3453,-0.3447,-0.3238,-0.3206,-0.3022,-0.2894,-0.3453,-0.345,-0.3448,0,-0.304,-0.3128,-0.3232,-0.3354,-0.3406,-0.3512,-0.369,-0.3803,-0.3901,-0.3949,-0.3892,-0.3851,-0.3731,-0.3717,-0.3533,-0.3586,-0.3508,-0.3446,-0.3441,-0.32,-0.3226,-0.293,-0.2845,-0.3422,-0.3425,-0.3426,-0.3428,0,-0.3012,-0.3139,-0.323,-0.3287,-0.3473,-0.3577,-0.3694,-0.3825,-0.3886,-0.3923,-0.3893,-0.381,-0.3707,-0.3611,-0.3458,-0.3498,-0.3269,-0.3323,-0.3082,-0.3073,-0.2838,-0.2809,-0.3179,-0.3179,-0.318,-0.318,-0.318,0,-0.3045,-0.3122,-0.3245,-0.3345,-0.3462,-0.3593,-0.3727,-0.3825,-0.3896,-0.3871,-0.3873,-0.3751,-0.3664,-0.3522,-0.3445,-0.3177,-0.3252,-0.3021,-0.2996,-0.2869,-0.2845,-0.3235,-0.3243,-0.3176,-0.3177,-0.3178,-0.3178,0,-0.3025,-0.3119,-0.3179,-0.3378,-0.3447,-0.3528,-0.3698,-0.3776,-0.385,-0.3783,-0.3754,-0.3668,-0.3464,-0.3377,-0.3195,-0.3089,-0.2921,-0.282,-0.268,-0.2634,-0.2795,-0.281,-0.2549,-0.2541,-0.2534,-0.2528,-0.2523,0,-0.3058,-0.308,-0.3159,-0.3183,-0.3297,-0.3442,-0.3551,-0.3715,-0.372,-0.3674,-0.3587,-0.3416,-0.3142,-0.2849,-0.2711,-0.2522,-0.2685,-0.2255,-0.226,-0.2709,-0.2714,-0.274,-0.2763,-0.2036,-0.2028,-0.2021,-0.2015,0,-0.3062,-0.3028,-0.3073,-0.31,-0.3191,-0.3244,-0.3376,-0.3358,-0.3477,-0.3364,-0.3135,-0.2915,-0.2655,-0.2311,-0.212,-0.2014,-0.2278,-0.2098,-0.2563,-0.2206,-0.221,-0.2221,-0.2263,-0.1953,-0.1959,-0.1964,-0.1967,-0.1969,-0.299,-0.2941,-0.2941,-0.2949,-0.3012,-0.3,-0.2961,-0.2998,-0.2895,-0.2634,-0.2628,-0.2234,-0.2171,-0.1692,-0.1585,-0.1594,-0.1752,-0.171,-0.1739,-0.1773,-0.1712,-0.1701,-0.1341,-0.1343,-0.1346,-0.1348,-0.1349,0,-0.2901,-0.2861,-0.2821,-0.2782,-0.2736,-0.2839,-0.2812,-0.2636,-0.2372,-0.2197,-0.1894,-0.1495,-0.1217,-0.1256,-0.1139,-0.1076,-0.1147,-0.106,-0.1194,-0.1253,-0.1306,-0.1231,-0.0727,-0.0725,-0.0724,-0.0722,0,0,-0.2853,-0.2758,-0.2698,-0.2527,-0.2499,-0.235,-0.2251,-0.1934,-0.1753,-0.1309,-0.1124,-0.1017,-0.1111,-0.0887,-0.0859,-0.079,-0.1017,-0.0737,-0.1229,-0.1442,-0.1493,-0.1659,-0.1603,0,0,0,0,0]},{"header":{"parameterUnit":"m.s-1","parameterCategory":2,"la1":30.2991,"la2":30.254,"lo1":-89.0895,"lo2":-89.0444,"dy":0.0017,"dx":0.0017,"nx":28,"ny":28,"refTime":"2026-02-06T03:00:00:Z","depth":"2","parameterNumber":3,"parameterNumberName":"V-component_of_CURRENTS"},"data":[0,0,0,0,0,0,0,0,0,0,0,0,0,0,0,0,0,0,0,0,0,0,0,0,0,0,0,0,0,0,0,0,0,0,0,0,0,0,0,0,0,0,0,0,0,0,0,0,0,0,0,0,0,0,0,0,0,0,-0.0542,-0.0542,0,-0.0504,-0.0503,-0.0503,-0.0435,-0.0434,-0.0433,-0.0431,-0.0236,-0.0232,-0.0228,0,0,0,0,0,0,0,0,0,0,0,0,0,-0.0523,-0.0524,-0.0542,-0.0542,-0.0541,-0.0504,-0.0503,-0.0503,-0.0436,-0.0434,-0.0432,-0.0431,-0.0237,-0.0232,-0.0227,0,0,0,0,0,0,0,0,0,0,0,0,0,-0.0514,-0.0525,-0.0542,-0.0502,-0.0498,-0.0504,-0.0503,-0.0503,-0.0436,-0.0434,-0.0432,-0.043,-0.0238,-0.0233,-0.0227,-0.023,0,0,-0.0209,-0.0206,0,0,0,0,0,0,0,0,-0.0514,-0.0515,-0.0509,-0.0505,-0.0501,-0.0472,-0.0425,-0.0403,-0.0436,-0.046,-0.0431,-0.0429,-0.0301,-0.029,-0.029,-0.0221,-0.0213,-0.0208,-0.0204,-0.0202,-0.02,0,0,0,0,0,0,0,-0.0515,-0.0516,-0.0528,-0.0508,-0.0503,-0.0475,-0.0472,-0.0421,-0.039,-0.0458,-0.0453,-0.0448,-0.0297,-0.0296,-0.0285,-0.021,-0.0208,-0.0203,-0.0199,-0.0197,-0.0057,-0.0057,0,0,0,0,0,0,-0.0523,-0.0517,-0.0529,-0.0526,-0.0502,-0.0477,-0.0473,-0.0484,-0.0394,-0.0379,-0.045,-0.0445,-0.0308,-0.0292,-0.0277,-0.0156,-0.0202,-0.0196,-0.0193,-0.0058,-0.0057,-0.0057,0,0,0,0,0,0,-0.0523,-0.0525,-0.053,-0.0519,-0.0517,-0.048,-0.0491,-0.0484,-0.0474,-0.0389,-0.0371,-0.0447,-0.0305,-0.0286,-0.0222,-0.0152,-0.0194,-0.0188,-0.0058,-0.0058,-0.0057,0.001,0,0,0,0,0,0,-0.0523,-0.0526,-0.0536,-0.052,-0.0518,-0.0537,-0.0493,-0.0485,-0.0474,-0.0467,-0.0381,-0.0361,-0.0302,-0.0232,-0.0216,-0.0145,-0.0184,-0.0058,-0.0058,-0.0057,0.0008,0.0013,0.0017,0,0,0,0,0,-0.0523,-0.0563,-0.0537,-0.0538,-0.0534,-0.0538,-0.0535,-0.05,-0.0476,-0.0482,-0.0414,-0.0363,-0.0218,-0.0227,-0.0209,-0.0133,-0.0058,-0.0058,-0.0057,0.0006,0.0012,0.0017,0,0,0,0,0,0,-0.0572,-0.0559,-0.053,-0.0565,-0.0546,-0.0526,-0.0536,-0.0509,-0.0466,-0.0454,-0.0366,-0.0343,-0.0286,-0.0233,-0.0244,-0.0102,-0.0128,-0.0124,-0.0086,-0.008,-0.0076,-0.0043,-0.0179,0,0,0,0,0,-0.0584,-0.0602,-0.0577,-0.0602,-0.0598,-0.0564,-0.0561,-0.0538,-0.05,-0.0481,-0.0411,-0.0337,-0.0276,-0.0196,-0.0175,-0.0069,-0.004,-0.0013,-0.0009,-0.0005,0.0029,0.0121,0.0139,-0.0056,-0.0056,-0.0056,0,0,-0.0608,-0.0604,-0.0613,-0.0611,-0.0596,-0.0609,-0.0558,-0.0565,-0.0515,-0.0464,-0.0385,-0.0357,-0.027,-0.0178,-0.0137,-0.0101,0.0052,-0.0004,-0.0,0.0032,0.0124,0.0144,0.0161,-0.0056,-0.0056,-0.0056,0,0,-0.0682,-0.0664,-0.0703,-0.0696,-0.068,-0.0651,-0.0654,-0.0623,-0.0538,-0.047,-0.0427,-0.0331,-0.0245,-0.0127,-0.0061,-0.0012,0.0017,-0.003,0.0107,0.0196,0.0214,0.0231,0.0245,0.0263,0.0045,0.0045,0.0045,0,-0.071,-0.0753,-0.0715,-0.0752,-0.0751,-0.0674,-0.071,-0.0611,-0.0548,-0.0449,-0.0439,-0.028,-0.0194,-0.0022,0.0019,0.0014,0.0016,0.009,0.0208,0.0225,0.0242,0.0253,0.0271,0.0048,0.0048,0.0048,0.0047,0,-0.0814,-0.0836,-0.0863,-0.0869,-0.0862,-0.0882,-0.0762,-0.0675,-0.0569,-0.0461,-0.0298,-0.0182,-0.0061,-0.0012,0.0049,0.0213,0.0153,0.0147,0.0207,0.0267,0.0271,0.029,0.0053,0.0052,0.0051,0.005,0,0,-0.0897,-0.093,-0.0934,-0.0938,-0.0925,-0.0919,-0.0798,-0.0652,-0.0518,-0.0381,-0.022,-0.0028,0.0044,0.0121,0.0202,0.0354,0.0487,0.033,0.0333,0.0365,0.0614,0.0449,0.0452,0.049,0.0494,0.0498,0.0556,0,-0.098,-0.1072,-0.1057,-0.1093,-0.1123,-0.1,-0.0874,-0.0712,-0.0535,-0.0349,-0.0109,0.0025,0.0101,0.0169,0.0332,0.0416,0.0544,0.0468,0.0534,0.0536,0.0402,0.0473,0.0463,0.0504,0.0574,0.0577,0.0579,0,-0.1087,-0.1119,-0.1201,-0.1147,-0.1139,-0.1118,-0.0907,-0.0777,-0.0462,-0.0317,-0.0116,0.0008,0.0267,0.0291,0.0554,0.0484,0.0566,0.0646,0.0649,0.0497,0.0407,0.0462,0.0534,0.061,0.0607,0.0605,0.0603,0,-0.1163,-0.1208,-0.1263,-0.1268,-0.1197,-0.1121,-0.1021,-0.0757,-0.0598,-0.0298,-0.0213,0.007,0.0198,0.0378,0.0553,0.0558,0.0771,0.079,0.0714,0.0699,0.0711,0.0688,0.0967,0.0967,0.0966,0.0966,0.0966,0,-0.1268,-0.129,-0.1283,-0.1302,-0.1259,-0.1167,-0.1022,-0.085,-0.061,-0.0453,-0.0205,-0.0088,0.0228,0.0378,0.0536,0.0654,0.0754,0.075,0.0728,0.0719,0.0698,0.0812,0.0793,0.0968,0.0968,0.0967,0.0967,0,-0.1336,-0.1361,-0.1391,-0.133,-0.1308,-0.1247,-0.1084,-0.0938,-0.0723,-0.0538,-0.046,-0.0183,0.001,0.0242,0.0514,0.0596,0.0747,0.075,0.067,0.0638,0.0621,0.0605,0.0715,0.0711,0.0707,0.0703,0.07,0,-0.1378,-0.1414,-0.1421,-0.1431,-0.1403,-0.1305,-0.121,-0.1,-0.088,-0.0612,-0.0549,-0.033,-0.0192,0.0088,0.0314,0.0514,0.0604,0.0582,0.0628,0.064,0.0609,0.0599,0.0588,0.0664,0.0661,0.0659,0.0657,0,-0.141,-0.1416,-0.1437,-0.1471,-0.1435,-0.1367,-0.1241,-0.1198,-0.0934,-0.0824,-0.0672,-0.056,-0.03,-0.0068,0.0153,0.0284,0.0556,0.0529,0.0636,0.0681,0.0584,0.0554,0.0548,0.0636,0.0638,0.064,0.0641,0.0642,-0.1394,-0.143,-0.1463,-0.1486,-0.1454,-0.1389,-0.1301,-0.121,-0.1079,-0.0858,-0.0814,-0.0605,-0.0396,-0.0068,0.0103,0.0318,0.0331,0.0449,0.0462,0.0477,0.0413,0.031,0.0295,0.0295,0.0295,0.0296,0.0296,0,-0.1367,-0.1423,-0.1462,-0.1471,-0.1422,-0.1378,-0.1275,-0.1165,-0.1051,-0.0912,-0.0784,-0.0554,-0.0362,-0.0102,0.018,0.0281,0.0373,0.0338,0.0474,0.049,0.0506,0.0451,0.034,0.0341,0.0342,0.0342,0,0,-0.1353,-0.1413,-0.1457,-0.1416,-0.1382,-0.1226,-0.1146,-0.1052,-0.0931,-0.0788,-0.0633,-0.0537,-0.0311,-0.0097,0.0065,0.0236,0.0348,0.0256,0.0201,0.0357,0.0373,0.0536,0.046,0,0,0,0,0]}],[{"header":{"parameterUnit":"m.s-1","parameterCategory":2,"la1":30.2991,"la2":30.254,"lo1":-89.0895,"lo2":-89.0444,"dy":0.0017,"dx":0.0017,"nx":28,"ny":28,"refTime":"2026-02-06T03:00:00:Z","depth":"4","parameterNumber":2,"parameterNumberName":"U-component_of_CURRENTS"},"data":[0,0,0,0,0,0,0,0,0,0,0,0,0,0,0,0,0,0,0,0,0,0,0,0,0,0,0,0,0,0,0,0,0,0,0,0,0,0,0,0,0,0,0,0,0,0,0,0,0,0,0,0,0,0,0,0,0,0,-0.18,-0.1801,0,-0.1804,-0.1803,-0.1803,-0.1799,-0.1799,-0.18,-0.18,-0.1902,-0.1904,-0.1906,0,0,0,0,0,0,0,0,0,0,0,0,0,-0.1746,-0.1747,-0.18,-0.1801,-0.1802,-0.1804,-0.1803,-0.1803,-0.1799,-0.1799,-0.18,-0.18,-0.1901,-0.1904,-0.1906,0,0,0,0,0,0,0,0,0,0,0,0,0,-0.1756,-0.1747,-0.18,-0.1804,-0.1805,-0.1804,-0.1803,-0.1803,-0.1799,-0.1799,-0.18,-0.1801,-0.19,-0.1903,-0.1907,-0.1915,0,0,-0.1917,-0.1919,0,0,0,0,0,0,0,0,-0.1755,-0.1757,-0.1803,-0.1804,-0.1805,-0.1807,-0.1822,-0.1847,-0.1799,-0.1795,-0.18,-0.1801,-0.1883,-0.1888,-0.1877,-0.192,-0.1924,-0.1918,-0.192,-0.1921,-0.1922,0,0,0,0,0,0,0,-0.1754,-0.1756,-0.1795,-0.1804,-0.1805,-0.1792,-0.1793,-0.1825,-0.1832,-0.1795,-0.1796,-0.1806,-0.1883,-0.1873,-0.1879,-0.1926,-0.1918,-0.1921,-0.1923,-0.1924,-0.2034,-0.2035,0,0,0,0,0,0,-0.1768,-0.1756,-0.1795,-0.1796,-0.1788,-0.1793,-0.1794,-0.1801,-0.183,-0.1836,-0.1806,-0.1806,-0.1867,-0.1875,-0.1883,-0.1938,-0.1921,-0.1924,-0.1926,-0.2033,-0.2034,-0.2035,0,0,0,0,0,0,-0.1767,-0.1772,-0.1795,-0.1781,-0.1784,-0.1794,-0.18,-0.1801,-0.1819,-0.1838,-0.1845,-0.1829,-0.1868,-0.1878,-0.1924,-0.1941,-0.1926,-0.1929,-0.2032,-0.2034,-0.2035,-0.2021,0,0,0,0,0,0,-0.1765,-0.1771,-0.1783,-0.1782,-0.1786,-0.1797,-0.1801,-0.18,-0.1826,-0.1827,-0.186,-0.1868,-0.1869,-0.1919,-0.1927,-0.1945,-0.1932,-0.2031,-0.2033,-0.2034,-0.202,-0.2021,-0.2022,0,0,0,0,0,-0.1763,-0.1761,-0.1784,-0.1789,-0.1801,-0.1798,-0.1797,-0.1802,-0.1827,-0.1824,-0.1854,-0.1868,-0.1935,-0.1922,-0.1932,-0.1951,-0.203,-0.2032,-0.2034,-0.202,-0.2021,-0.2022,0,0,0,0,0,0,-0.1738,-0.1762,-0.1786,-0.1792,-0.1804,-0.1799,-0.1798,-0.1821,-0.184,-0.1861,-0.1879,-0.1888,-0.1936,-0.195,-0.1935,-0.1988,-0.1986,-0.199,-0.1971,-0.1973,-0.1974,-0.194,-0.1935,0,0,0,0,0,-0.1745,-0.175,-0.1776,-0.1781,-0.1789,-0.1807,-0.1813,-0.1832,-0.1849,-0.1859,-0.1879,-0.1913,-0.1945,-0.1965,-0.199,-0.2022,-0.2021,-0.2042,-0.2043,-0.2044,-0.2024,-0.205,-0.2051,-0.2042,-0.2042,-0.2042,0,0,-0.1735,-0.1752,-0.1755,-0.1777,-0.1784,-0.1779,-0.181,-0.183,-0.1828,-0.1871,-0.1876,-0.1925,-0.1958,-0.1984,-0.2007,-0.2001,-0.2045,-0.2047,-0.2047,-0.2026,-0.2052,-0.2053,-0.2053,-0.2043,-0.2043,-0.2042,0,0,-0.1686,-0.1737,-0.1712,-0.1728,-0.1761,-0.178,-0.1798,-0.182,-0.1831,-0.1852,-0.1892,-0.194,-0.1975,-0.1993,-0.201,-0.2037,-0.2055,-0.2071,-0.2043,-0.207,-0.207,-0.207,-0.2058,-0.2057,-0.2065,-0.2065,-0.2065,0,-0.1668,-0.1655,-0.1704,-0.1685,-0.1702,-0.1783,-0.1768,-0.1785,-0.182,-0.1846,-0.185,-0.1945,-0.1962,-0.2019,-0.2009,-0.2036,-0.2051,-0.2034,-0.2069,-0.2069,-0.207,-0.2057,-0.2057,-0.2065,-0.2065,-0.2065,-0.2065,0,-0.1591,-0.1597,-0.1586,-0.1596,-0.1623,-0.1633,-0.1683,-0.1729,-0.1775,-0.1795,-0.1871,-0.1908,-0.1968,-0.1986,-0.199,-0.2033,-0.2042,-0.2071,-0.2059,-0.2069,-0.2056,-0.2055,-0.2064,-0.2064,-0.2064,-0.2064,0,0,-0.1485,-0.1522,-0.1516,-0.153,-0.1592,-0.1608,-0.1644,-0.1693,-0.173,-0.1784,-0.1821,-0.1869,-0.1937,-0.196,-0.2018,-0.202,-0.2014,-0.2039,-0.2041,-0.2013,-0.2058,-0.1895,-0.1879,-0.2069,-0.2069,-0.2069,-0.2042,0,-0.1401,-0.1359,-0.1411,-0.1406,-0.1399,-0.1521,-0.1535,-0.1614,-0.1681,-0.1736,-0.1828,-0.1876,-0.1917,-0.1966,-0.1986,-0.2003,-0.2016,-0.2017,-0.2062,-0.2062,-0.1906,-0.1873,-0.207,-0.2041,-0.2041,-0.2041,-0.2041,0,-0.1279,-0.1286,-0.1241,-0.1333,-0.1343,-0.1371,-0.1487,-0.1516,-0.1634,-0.1693,-0.1809,-0.1876,-0.1926,-0.1954,-0.1996,-0.2006,-0.2028,-0.2033,-0.2034,-0.1879,-0.1897,-0.2034,-0.204,-0.204,-0.204,-0.2041,-0.2041,0,-0.1139,-0.1175,-0.1146,-0.1164,-0.1254,-0.1304,-0.1392,-0.1504,-0.1545,-0.1688,-0.1731,-0.1844,-0.1875,-0.1938,-0.1936,-0.1983,-0.1944,-0.2021,-0.1907,-0.1896,-0.206,-0.2061,-0.2057,-0.2057,-0.2057,-0.2057,-0.2057,0,-0.0994,-0.0997,-0.1094,-0.1069,-0.1123,-0.122,-0.1286,-0.1403,-0.1516,-0.1534,-0.1708,-0.1732,-0.1868,-0.1871,-0.1916,-0.1858,-0.1939,-0.1868,-0.1869,-0.2055,-0.2055,-0.2059,-0.206,-0.2056,-0.2056,-0.2056,-0.2057,0,-0.0847,-0.0861,-0.0884,-0.0993,-0.1037,-0.1095,-0.1263,-0.1301,-0.1417,-0.1458,-0.1496,-0.1623,-0.1619,-0.1711,-0.1754,-0.1775,-0.177,-0.1749,-0.188,-0.1895,-0.1725,-0.1726,-0.1637,-0.1631,-0.1626,-0.1621,-0.1618,0,-0.0775,-0.0735,-0.0845,-0.0874,-0.0939,-0.1043,-0.1095,-0.1251,-0.1281,-0.1353,-0.134,-0.1377,-0.1448,-0.1373,-0.1505,-0.1571,-0.1598,-0.1602,-0.1717,-0.1666,-0.1678,-0.1687,-0.1695,-0.1609,-0.1608,-0.1607,-0.1605,0,-0.0679,-0.0706,-0.0734,-0.0787,-0.0847,-0.0912,-0.1003,-0.0998,-0.1095,-0.1209,-0.1146,-0.1181,-0.117,-0.1247,-0.128,-0.1351,-0.1599,-0.155,-0.1564,-0.1673,-0.1632,-0.1651,-0.1665,-0.1587,-0.159,-0.1591,-0.1592,0,-0.0643,-0.0668,-0.0668,-0.0733,-0.0767,-0.0735,-0.0824,-0.0835,-0.0862,-0.0943,-0.0896,-0.0978,-0.1069,-0.1127,-0.1154,-0.1192,-0.1255,-0.1296,-0.1326,-0.1348,-0.128,-0.1188,-0.0971,0,0,0,0,0,-0.0607,-0.0592,-0.0627,-0.0627,-0.0649,-0.0663,-0.0715,-0.0784,-0.0851,-0.076,-0.0826,-0.0815,-0.0871,-0.0947,-0.0947,-0.1094,-0.1278,-0.1098,-0.1342,-0.1486,-0.1507,-0.1462,0,0,0,0,0,0,-0.0563,-0.0562,-0.0581,-0.0495,-0.0483,-0.047,-0.049,-0.0552,-0.0524,-0.0618,-0.0654,-0.0769,-0.0848,-0.0831,-0.0921,-0.0951,-0.1096,-0.1183,-0.1182,-0.1474,-0.1493,-0.151,-0.1471,0,0,0,0,0]},{"header":{"parameterUnit":"m.s-1","parameterCategory":2,"la1":30.2991,"la2":30.254,"lo1":-89.0895,"lo2":-89.0444,"dy":0.0017,"dx":0.0017,"nx":28,"ny":28,"refTime":"2026-02-06T03:00:00:Z","depth":"4","parameterNumber":3,"parameterNumberName":"V-component_of_CURRENTS"},"data":[0,0,0,0,0,0,0,0,0,0,0,0,0,0,0,0,0,0,0,0,0,0,0,0,0,0,0,0,0,0,0,0,0,0,0,0,0,0,0,0,0,0,0,0,0,0,0,0,0,0,0,0,0,0,0,0,0,0,-0.0417,-0.0417,0,-0.0446,-0.0446,-0.0447,-0.0401,-0.0399,-0.0397,-0.0395,-0.0315,-0.0315,-0.0314,0,0,0,0,0,0,0,0,0,0,0,0,0,-0.0363,-0.0364,-0.0417,-0.0417,-0.0417,-0.0446,-0.0446,-0.0447,-0.0401,-0.0399,-0.0396,-0.0394,-0.0315,-0.0315,-0.0314,0,0,0,0,0,0,0,0,0,0,0,0,0,-0.0392,-0.0365,-0.0417,-0.0395,-0.0393,-0.0445,-0.0446,-0.0447,-0.0401,-0.0399,-0.0396,-0.0393,-0.0315,-0.0315,-0.0314,-0.0367,0,0,-0.0313,-0.0312,0,0,0,0,0,0,0,0,-0.039,-0.0394,-0.0398,-0.0396,-0.0394,-0.0414,-0.0398,-0.0414,-0.0402,-0.0402,-0.0395,-0.0392,-0.0338,-0.0336,-0.0353,-0.0363,-0.036,-0.0313,-0.0312,-0.0312,-0.0312,0,0,0,0,0,0,0,-0.0388,-0.0393,-0.0431,-0.0398,-0.0396,-0.0398,-0.0399,-0.0402,-0.0386,-0.0401,-0.0397,-0.0397,-0.0336,-0.0354,-0.0351,-0.0359,-0.0313,-0.0312,-0.0312,-0.0311,-0.0442,-0.0446,0,0,0,0,0,0,-0.038,-0.0391,-0.043,-0.0432,-0.0382,-0.0401,-0.0402,-0.0413,-0.0388,-0.0381,-0.0399,-0.0394,-0.0356,-0.0351,-0.0347,-0.043,-0.0312,-0.0311,-0.0311,-0.0438,-0.0443,-0.0447,0,0,0,0,0,0,-0.0379,-0.0384,-0.0429,-0.0408,-0.0414,-0.0404,-0.0417,-0.0415,-0.0424,-0.0387,-0.0378,-0.0408,-0.0354,-0.0348,-0.037,-0.0424,-0.0311,-0.0311,-0.0434,-0.044,-0.0445,-0.058,0,0,0,0,0,0,-0.0377,-0.0383,-0.0394,-0.0409,-0.0415,-0.0478,-0.042,-0.0417,-0.0427,-0.0421,-0.0392,-0.0383,-0.0351,-0.0371,-0.0369,-0.0422,-0.031,-0.0429,-0.0436,-0.0443,-0.057,-0.0589,-0.0605,0,0,0,0,0,-0.0376,-0.0414,-0.0395,-0.04,-0.0429,-0.048,-0.0486,-0.047,-0.043,-0.0462,-0.044,-0.0383,-0.0415,-0.0374,-0.0371,-0.0424,-0.0425,-0.0434,-0.0443,-0.0562,-0.0585,-0.0605,0,0,0,0,0,0,-0.0405,-0.0413,-0.0392,-0.0432,-0.0455,-0.0471,-0.0496,-0.048,-0.0492,-0.0478,-0.0427,-0.0419,-0.0462,-0.0434,-0.039,-0.0488,-0.0414,-0.0422,-0.0506,-0.0527,-0.0545,-0.0534,-0.031,0,0,0,0,0,-0.0415,-0.0439,-0.045,-0.0483,-0.0494,-0.0494,-0.0509,-0.0506,-0.0513,-0.0514,-0.0502,-0.0493,-0.0503,-0.0503,-0.0512,-0.0561,-0.0499,-0.0599,-0.0616,-0.0631,-0.0625,-0.0586,-0.0598,-0.0475,-0.0475,-0.0475,0,0,-0.0432,-0.0441,-0.0452,-0.0489,-0.05,-0.0553,-0.0498,-0.054,-0.0586,-0.0505,-0.0569,-0.0553,-0.0531,-0.0592,-0.0609,-0.0568,-0.064,-0.0642,-0.0654,-0.0639,-0.0596,-0.0607,-0.0617,-0.0481,-0.048,-0.0479,0,0,-0.05,-0.0491,-0.0539,-0.0567,-0.0595,-0.0604,-0.0616,-0.0648,-0.0662,-0.0729,-0.0678,-0.0689,-0.0728,-0.0714,-0.071,-0.0831,-0.0735,-0.0848,-0.0922,-0.0886,-0.0894,-0.0901,-0.0849,-0.085,-0.0855,-0.0855,-0.0855,0,-0.0517,-0.0568,-0.0565,-0.0626,-0.0642,-0.0629,-0.0686,-0.0726,-0.0766,-0.0768,-0.0771,-0.0804,-0.0787,-0.0814,-0.0869,-0.0866,-0.0823,-0.0838,-0.0904,-0.0909,-0.0913,-0.0858,-0.0857,-0.0862,-0.0862,-0.0861,-0.086,0,-0.0627,-0.0659,-0.0695,-0.0751,-0.0785,-0.0832,-0.0868,-0.0911,-0.0921,-0.0933,-0.0979,-0.098,-0.0972,-0.1002,-0.0977,-0.1009,-0.0962,-0.0927,-0.0838,-0.0933,-0.087,-0.0867,-0.0873,-0.0871,-0.0868,-0.0866,0,0,-0.0665,-0.0749,-0.0758,-0.0777,-0.084,-0.0874,-0.096,-0.1002,-0.1011,-0.109,-0.1108,-0.1168,-0.1126,-0.112,-0.1091,-0.1089,-0.1097,-0.1037,-0.1031,-0.0963,-0.1008,-0.0896,-0.0879,-0.107,-0.107,-0.1071,-0.0955,0,-0.0733,-0.0837,-0.0872,-0.0955,-0.0989,-0.1005,-0.1068,-0.1107,-0.1128,-0.1158,-0.1169,-0.1185,-0.1184,-0.1172,-0.1177,-0.1105,-0.1092,-0.1131,-0.0945,-0.0939,-0.0809,-0.0873,-0.1071,-0.0952,-0.0951,-0.095,-0.0949,0,-0.082,-0.0858,-0.0941,-0.0992,-0.1009,-0.1074,-0.1099,-0.116,-0.1193,-0.1205,-0.1223,-0.1209,-0.1224,-0.1213,-0.1149,-0.1172,-0.1105,-0.1063,-0.1056,-0.0894,-0.0819,-0.0837,-0.0941,-0.0941,-0.0942,-0.0942,-0.0943,0,-0.0801,-0.0906,-0.0949,-0.0974,-0.1042,-0.1082,-0.1132,-0.1165,-0.1186,-0.122,-0.1219,-0.1227,-0.1219,-0.1173,-0.1099,-0.1116,-0.1012,-0.1003,-0.084,-0.083,-0.09,-0.0894,-0.095,-0.095,-0.095,-0.095,-0.0951,0,-0.0821,-0.0865,-0.0945,-0.0962,-0.1014,-0.1072,-0.1117,-0.116,-0.1193,-0.1185,-0.1227,-0.1209,-0.1211,-0.1153,-0.1093,-0.0944,-0.0989,-0.085,-0.0795,-0.0965,-0.0968,-0.0897,-0.0892,-0.0946,-0.0947,-0.0948,-0.0949,0,-0.0783,-0.0837,-0.0894,-0.0971,-0.1004,-0.1042,-0.1138,-0.1152,-0.1184,-0.1178,-0.1189,-0.1193,-0.1113,-0.1079,-0.0979,-0.09,-0.0788,-0.0718,-0.0892,-0.0849,-0.0634,-0.0638,-0.0527,-0.0522,-0.0518,-0.0515,-0.0512,0,-0.0772,-0.0789,-0.089,-0.0929,-0.0972,-0.1043,-0.1082,-0.1146,-0.1142,-0.1137,-0.1113,-0.1073,-0.1053,-0.0857,-0.0814,-0.0676,-0.0654,-0.0578,-0.0638,-0.0634,-0.0592,-0.0603,-0.0613,-0.0505,-0.0504,-0.0503,-0.0502,0,-0.0723,-0.0767,-0.0805,-0.0887,-0.0947,-0.0996,-0.1056,-0.104,-0.1058,-0.1101,-0.1025,-0.0955,-0.0859,-0.0786,-0.068,-0.0581,-0.0627,-0.0535,-0.0544,-0.0599,-0.0606,-0.0571,-0.0585,-0.0488,-0.049,-0.0491,-0.0492,0,-0.0684,-0.0709,-0.0768,-0.084,-0.0905,-0.0913,-0.0964,-0.096,-0.0961,-0.0953,-0.0914,-0.0868,-0.0874,-0.0727,-0.0619,-0.0526,-0.0504,-0.0462,-0.0474,-0.0489,-0.0519,-0.0525,-0.033,0,0,0,0,0,-0.0637,-0.0663,-0.0727,-0.0783,-0.0848,-0.0887,-0.0914,-0.0943,-0.0945,-0.0878,-0.0898,-0.0809,-0.0667,-0.0637,-0.0521,-0.0522,-0.0472,-0.0373,-0.0426,-0.0409,-0.0425,-0.0457,0,0,0,0,0,0,-0.0604,-0.0647,-0.0692,-0.0713,-0.075,-0.079,-0.0804,-0.0818,-0.0785,-0.0804,-0.0759,-0.075,-0.065,-0.0755,-0.0521,-0.0493,-0.0493,-0.0341,-0.0336,-0.0399,-0.0414,-0.0428,-0.0467,0,0,0,0,0]}]]